TimeCST,TemperatureF,Dew PointF,Humidity,Sea Level PressureIn,VisibilityMPH,Wind Direction,Wind SpeedMPH,Gust SpeedMPH,PrecipitationIn,Events,Conditions,WindDirDegrees,DateUTC
12:52 AM,17.1,8.1,68,30.13,10.0,SSW,8.1,-,N/A,,Clear,200,2013-01-16 06:52:00
1:52 AM,17.1,8.1,68,30.12,10.0,SSW,8.1,-,N/A,,Clear,210,2013-01-16 07:52:00
2:52 AM,18.0,8.1,65,30.10,10.0,SSW,8.1,-,N/A,,Clear,200,2013-01-16 08:52:00
3:52 AM,17.1,8.1,68,30.07,10.0,SSW,9.2,-,N/A,,Clear,210,2013-01-16 09:52:00
4:52 AM,18.0,9.0,68,30.04,10.0,SSW,10.4,-,N/A,,Clear,210,2013-01-16 10:52:00
5:52 AM,19.0,9.0,65,30.02,10.0,SSW,12.7,-,N/A,,Clear,210,2013-01-16 11:52:00
6:52 AM,19.0,9.0,65,29.99,10.0,SSW,13.8,21.9,N/A,,Clear,200,2013-01-16 12:52:00
7:52 AM,19.0,10.0,68,30.00,10.0,SSW,13.8,-,N/A,,Clear,210,2013-01-16 13:52:00
8:52 AM,23.0,12.9,65,29.99,10.0,SW,16.1,-,N/A,,Clear,220,2013-01-16 14:52:00
9:52 AM,28.0,17.1,63,29.96,10.0,SW,13.8,-,N/A,,Clear,220,2013-01-16 15:52:00
10:52 AM,30.9,18.0,59,29.93,10.0,SW,19.6,24.2,N/A,,Mostly Cloudy,220,2013-01-16 16:52:00
11:52 AM,33.1,19.9,59,29.91,10.0,SW,19.6,26.5,N/A,,Overcast,230,2013-01-16 17:52:00
12:14 PM,33.8,21.2,60,29.86,10.0,SW,18.4,27.6,N/A,,Overcast,220,2013-01-16 18:14:00
12:52 PM,34.0,21.9,61,29.89,10.0,WSW,18.4,-,N/A,,Overcast,240,2013-01-16 18:52:00
1:52 PM,36.0,26.1,67,29.90,10.0,West,15.0,-,N/A,,Overcast,260,2013-01-16 19:52:00
2:52 PM,36.0,27.0,70,29.91,10.0,WSW,12.7,-,N/A,,Overcast,250,2013-01-16 20:52:00
3:06 PM,35.6,28.4,75,29.89,10.0,WSW,11.5,-,N/A,,Overcast,250,2013-01-16 21:06:00
3:52 PM,36.0,28.0,73,29.95,10.0,WSW,12.7,-,N/A,,Overcast,250,2013-01-16 21:52:00
4:52 PM,35.1,28.0,76,29.98,10.0,WSW,10.4,-,N/A,,Scattered Clouds,240,2013-01-16 22:52:00
5:52 PM,35.1,28.0,76,29.99,10.0,WSW,8.1,-,N/A,,Overcast,240,2013-01-16 23:52:00
6:52 PM,36.0,28.9,76,30.01,10.0,WSW,6.9,-,N/A,,Overcast,240,2013-01-17 00:52:00
7:52 PM,36.0,28.9,76,30.03,8.0,SW,6.9,-,N/A,,Overcast,220,2013-01-17 01:52:00
8:09 PM,35.6,28.4,75,30.01,8.0,SSW,6.9,-,N/A,,Overcast,210,2013-01-17 02:09:00
8:52 PM,36.0,30.0,79,30.05,9.0,SW,5.8,-,N/A,,Overcast,230,2013-01-17 02:52:00
9:52 PM,36.0,30.9,82,30.06,9.0,WNW,9.2,-,N/A,,Overcast,290,2013-01-17 03:52:00
10:21 PM,35.6,30.2,81,30.04,9.0,WNW,6.9,-,N/A,,Scattered Clouds,290,2013-01-17 04:21:00
10:52 PM,36.0,32.0,86,30.08,8.0,NW,10.4,-,N/A,,Mostly Cloudy,310,2013-01-17 04:52:00
11:12 PM,35.6,32.0,87,30.07,9.0,NW,13.8,-,N/A,,Overcast,320,2013-01-17 05:12:00
11:52 PM,35.1,30.0,82,30.13,10.0,NNW,16.1,-,N/A,,Overcast,340,2013-01-17 05:52:00